Regional Weather Roundup
Issued by NWS Cleveland, OH

Home | Current Version | Previous Version | Graphics & Text | Print | Product List | Glossary On
Versions: 1 2 3 4 5 6 7 8 9 10 11 12 13 14 15 16 17 18 19 20 21 22 23 24 25 26 27 28 29 30 31 32 33 34 35 36 37 38 39 40 41 42 43 44 45 46 47 48 49 50
000
ASUS41 KCLE 231810
RWRCLE
OHIO REGIONAL WEATHER ROUNDUP
NATIONAL WEATHER SERVICE CLEVELAND, OH
200 PM EDT SUN JUL 23 2017

NOTE: "FAIR" INDICATES FEW OR NO CLOUDS BELOW 12,000 FEET WITH NO
SIGNIFICANT WEATHER AND/OR OBSTRUCTIONS TO VISIBILITY.

OHZ001>008-015>018-024>027-034-035-043-044-231900-
   NORTHWEST OHIO

CITY           SKY/WX    TMP DP  RH WIND       PRES   REMARKS
DEFIANCE       CLOUDY   N/A N/A N/A VRB6      29.79F
FINDLAY        CLOUDY    81  68  64 W9        29.79F
TOLEDO EXPRESS PTSUNNY   80  69  69 SW7       29.79S
TOLEDO EXEC    CLOUDY    81  71  71 W10       29.79F
LIMA           CLOUDY    78  72  81 W7        29.80F
$$

OHZ009>014-019>023-028>033-038-089-231900-
   NORTHEAST OHIO

CITY           SKY/WX    TMP DP  RH WIND       PRES   REMARKS
CLE-HOPKINS    PTSUNNY   84  72  67 VRB6      29.80S
CLE-LAKEFRONT  PTSUNNY   79  70  74 W8        29.79R
CUY CO. ARPT   PTSUNNY   81  68  65 W9        29.81S
LORAIN-ELYRIA  CLOUDY    80  66  62 W3        29.80S
ASHTABULA      PTSUNNY   80  72  76 NW8       29.80S
AKRON-CANTON   CLOUDY    83  68  60 SW8       29.82S
WOOSTER        CLOUDY    81  70  69 W10       29.82F
MANSFIELD      PTSUNNY   81  69  67 SW8       29.82F
YOUNGSTOWN     PTSUNNY   82  68  62 W8        29.80S
$$

OHZ042-051>053-060>062-070>072-077>081-231900-
  SOUTHWEST OHIO

CITY           SKY/WX    TMP DP  RH WIND       PRES   REMARKS
CINC-COVINGTON CLOUDY    77  73  87 VRB6G18   29.81R
CINC-LUNKEN    MOSUNNY   78  72  81 SW9       29.79S
HAMILTON       MOSUNNY   81  74  79 W9        29.83R
DAYTON         CLOUDY    77  71  82 NW8       29.81S
WRIGHT-PAT AFB PTSUNNY   76  74  94 W5        29.77F
DAYTON GENERAL CLOUDY    78  71  79 CALM      29.79F
WILMINGTON     PTSUNNY   76  73  91 N8        29.79F
$$

OHZ036-037-039>041-045>050-054>059-063>069-073>076-082>088-231900-
  CENTRAL AND SOUTHEAST OHIO

CITY           SKY/WX    TMP DP  RH WIND       PRES   REMARKS
COLUMBUS       CLOUDY    77  74  90 NW8       29.81F
OSU AIRPORT    LGT RAIN  76  72  87 NW9       29.80F
BOLTON FIELD   CLOUDY    75  72  88 W9        29.82F
RICKENBACK AFB CLOUDY    76  71  84 W7        29.81F
NEWARK         CLOUDY    80  72  76 W10G20    29.80F
MARION         CLOUDY    79  71  76 W9        29.81F
LANCASTER      CLOUDY    76  70  82 W8        29.83F
ZANESVILLE     CLOUDY    76  71  85 SW6       29.84S
NEW PHILLY     NOT AVBL
$$



USA.gov is the U.S. government's official web portal to all federal, state and local government web resources and services.